Location: Unspecified
(0.0000°N, 0.0000°E)
Time: 19:39:35
(UTC+00:00)

SCD-1 - Visible Passes

Search period start: 30 May 2024 00:00
Search period end: 09 June 2024 00:00
Orbit: 711 x 771 km, 25.0° (Epoch: 30 May)

Date Brightness Start Highest point End Pass type
(mag) Time Alt. Az. Time Alt. Az. Time Alt. Az.
30 May 10.0 03:34:24 29° NNE 03:34:31 29° NNE 03:38:58 10° E visible
30 May 8.3 05:15:31 10° WNW 05:20:37 70° SSW 05:25:49 10° ESE visible
30 May 11.2 19:33:37 10° NW 19:35:45 12° NNW 19:37:54 10° N visible
31 May 11.4 02:49:10 10° ENE 02:49:10 10° ENE 02:49:12 10° ENE visible
31 May 8.3 04:28:48 30° WNW 04:31:22 88° NNE 04:36:34 10° ESE visible
31 May 11.0 18:43:08 10° WNW 18:46:20 16° NNW 18:49:30 10° NNE visible
01 Jun 9.2 03:43:34 45° E 03:43:34 45° E 03:47:13 10° ESE visible
01 Jun 9.3 05:23:44 10° W 05:28:14 30° SSW 05:32:47 10° SE visible
02 Jun 8.8 04:37:53 35° SW 04:38:56 39° SSW 04:43:45 10° SE visible
03 Jun 10.0 03:52:28 25° SE 03:52:28 25° SE 03:54:41 10° SE visible
03 Jun 10.1 05:33:12 10° SW 05:36:01 15° SSW 05:38:51 10° SSE visible
04 Jun 9.8 04:46:34 18° SSW 04:46:39 18° SSW 04:50:11 10° SSE visible
05 Jun 10.7 04:00:57 12° SSE 04:00:57 12° SSE 04:01:23 10° SSE visible
